DB0GIS-11 Weather Reports


time (UTC)temp
C
wind
direction
speed
KPH
gust
KPH
rain 1hr
cm
rain 24hr
cm
rain mn
cm
humidity
%
barometer
mb
20260506123733 17 225 1.6 12.9 0.00 0.79 0.00 38 1001.6
20260506122722 16 0.0 0.0 0.00 0.79 0.00 40 1001.6
20260506121722 16 203 1.6 6.4 0.00 0.79 0.00 32 1001.6
20260506120719 16 169 6.4 11.3 0.00 0.79 0.00 26 1001.6
20260506115727 15 180 0.0 3.2 0.00 0.79 0.00 30 1001.6
20260506114738 15 180 3.2 8.0 0.00 0.79 0.00 33 1001.8
20260506113756 15 0.0 0.0 0.00 0.79 0.00 35 1001.7
20260506112725 16 158 0.0 1.6 0.00 0.79 0.00 34 1001.8
20260506111718 16 158 0.0 3.2 0.00 0.79 0.00 35 1001.7
20260506110722 16 0.0 0.0 0.00 0.79 0.00 33 1001.6
20260506105805 16 0.0 0.0 0.00 0.79 0.00 30 1001.6
20260506104728 15 0.0 0.0 0.00 0.79 0.00 31 1001.6
20260506103725 16 0.0 0.0 0.00 0.79 0.00 32 1001.7
20260506102742 16 207 9.7 12.9 0.00 0.79 0.00 31 1001.6
20260506101730 16 212 6.4 9.7 0.00 0.79 0.00 20 1001.6
20260506100736 16 203 3.2 11.3 0.00 0.79 0.00 10 1001.7
20260506095729 16 225 6.4 11.3 0.00 0.79 0.00 10 1001.6
20260506094726 16 212 3.2 6.4 0.00 0.79 0.00 10 1001.7
20260506093753 15 0.0 0.0 0.00 0.79 0.00 10 1001.7
20260506092722 15 225 0.0 4.8 0.00 0.79 0.00 10 1001.7
20260506091740 15 211 1.6 6.4 0.00 0.79 0.00 10 1001.7
20260506085733 14 248 0.0 1.6 0.00 0.79 0.00 10 1001.6
20260506084737 14 0.0 0.0 0.00 0.79 0.00 10 1001.6
20260506083806 14 0.0 0.0 0.00 0.79 0.00 10 1001.5
20260506082721 15 225 1.6 8.0 0.00 0.79 0.00 10 1001.5
20260506081746 15 227 4.8 11.3 0.00 0.79 0.00 10 1001.5
20260506080744 15 203 1.6 6.4 0.00 0.79 0.00 10 1001.3
20260506072809 14 204 3.2 16.1 0.00 0.79 0.00 10 1001.3
20260506071735 13 207 1.6 8.0 0.00 0.79 0.00 10 1001.3
20260506070729 13 0.0 0.0 0.00 0.79 0.00 10 1001.3
20260506061728 12 180 1.6 3.2 0.00 0.79 0.00 10 1001.1
20260506060755 12 0.0 0.0 0.00 0.79 0.00 10 1001.2
20260506050715 12 0.0 0.0 0.00 0.84 0.00 10 1001.1
20260506044728 12 0.0 0.0 0.00 0.84 0.00 10 1001.2
20260506043743 12 0.0 0.0 0.00 0.84 0.00 10 1001.2
20260506042732 12 0.0 0.0 0.00 0.84 0.00 10 1001.3
20260506041742 12 0.0 0.0 0.00 0.84 0.00 10 1001.3
20260506040811 12 0.0 0.0 0.00 0.84 0.00 10 1001.3
20260506035719 12 0.0 0.0 0.00 0.84 0.00 10 1001.2
20260506034719 12 225 0.0 3.2 0.00 0.84 0.00 10 1001.3
20260506033819 12 0.0 0.0 0.00 0.84 0.00 10 1001.3
20260506032726 12 0.0 0.0 0.00 0.84 0.00 10 1001.2
20260506031742 12 0.0 0.0 0.00 0.84 0.00 10 1001.2
20260506030811 12 180 1.6 3.2 0.00 0.84 0.00 10 1001.3
20260506025737 12 180 1.6 4.8 0.00 0.84 0.00 10 1001.3
20260506024729 12 0.0 0.0 0.00 0.84 0.00 10 1001.3
20260506023721 12 0.0 0.0 0.00 0.84 0.00 10 1001.3
20260506022735 12 0.0 0.0 0.00 0.84 0.00 10 1001.3
20260506021722 12 0.0 0.0 0.00 0.84 0.00 10 1001.3
20260506020759 12 0.0 0.0 0.00 0.84 0.00 10 1001.5
20260506015724 12 0.0 0.0 0.00 0.84 0.00 10 1001.4
20260506014735 12 0.0 0.0 0.00 0.84 0.00 10 1001.4
20260506013744 12 0.0 0.0 0.00 0.84 0.00 10 1001.8
20260506012732 12 0.0 0.0 0.00 0.84 0.00 10 1001.7
20260506011730 12 0.0 0.0 0.00 0.84 0.00 10 1001.6
20260506010814 12 0.0 0.0 0.00 0.84 0.00 10 1001.7
20260506005718 12 0.0 0.0 0.00 0.84 0.00 10 1001.6
20260506004722 12 0.0 0.0 0.00 0.84 0.00 10 1001.7
20260506003738 13 158 3.2 4.8 0.00 0.84 0.00 10 1001.8
20260506002742 13 0.0 0.0 0.00 0.84 0.00 10 1001.8
20260506001724 13 158 1.6 9.7 0.00 0.84 0.00 10 1002.0
20260506000840 13 158 1.6 1.6 0.00 0.84 0.00 10 1002.0
20260505235735 13 180 1.6 3.2 0.00 0.84 0.00 10 1002.1
20260505233731 13 0.0 0.0 0.00 0.84 0.00 10 1002.2
20260505232720 13 0.0 0.0 0.00 0.84 0.00 10 1002.2
20260505231722 13 0.0 0.0 0.00 0.84 0.00 10 1002.3
20260505230728 13 0.0 0.0 0.00 0.84 0.00 10 1002.5
20260505225748 13 0.0 0.0 0.00 0.84 0.00 10 1002.6
20260505224715 13 0.0 0.0 0.00 0.84 0.00 10 1002.6
20260505223802 13 0.0 0.0 0.00 0.94 0.00 10 1002.7
20260505222743 13 0.0 0.0 0.00 0.94 0.00 10 1002.8
20260505221719 13 0.0 0.0 0.00 0.94 0.00 10 1002.8
20260505220719 13 0.0 0.0 0.00 0.94 0.00 10 1002.9
20260505215724 13 0.0 0.0 0.00 0.94 0.94 10 1002.9
20260505214724 13 0.0 0.0 0.00 0.94 0.94 10 1002.9
20260505213723 13 0.0 0.0 0.00 0.94 0.94 10 1003.0
20260505212738 13 0.0 0.0 0.00 0.94 0.94 10 1003.0
20260505211723 13 0.0 0.0 0.00 0.94 0.94 10 1003.0
20260505210723 13 0.0 0.0 0.00 0.94 0.94 10 1003.2
20260505205743 13 0.0 0.0 0.00 0.94 0.94 10 1003.1
20260505204735 13 0.0 0.0 0.00 0.94 0.94 10 1003.1
20260505203720 13 0.0 0.0 0.00 0.94 0.94 10 1003.1
20260505202724 13 0.0 0.0 0.00 0.94 0.94 10 1003.2
20260505201747 13 0.0 0.0 0.00 0.94 0.94 10 1003.2
20260505200736 13 0.0 0.0 0.00 0.94 0.94 10 1003.1
20260505195722 13 0.0 0.0 0.00 0.94 0.94 10 1003.1
20260505194740 14 0.0 0.0 0.00 0.94 0.94 10 1003.1
20260505193718 14 0.0 0.0 0.00 0.94 0.94 10 1003.0
20260505192729 14 0.0 0.0 0.00 0.94 0.94 10 1003.1
20260505191744 14 0.0 0.0 0.00 0.94 0.94 10 1003.0
20260505190728 14 0.0 0.0 0.00 0.94 0.94 10 1002.9
20260505185750 14 0.0 0.0 0.00 0.94 0.94 10 1002.9
20260505184731 14 0.0 0.0 0.00 0.94 0.94 10 1002.8
20260505183729 14 0.0 0.0 0.00 0.94 0.94 10 1003.1
20260505182733 14 0.0 0.0 0.00 0.94 0.94 10 1003.1
20260505181747 14 0.0 0.0 0.00 0.94 0.94 10 1003.1
20260505180749 14 0.0 0.0 0.00 0.94 0.94 10 1003.1
20260505175724 14 0.0 0.0 0.00 0.94 0.94 10 1003.1
20260505174722 14 0.0 0.0 0.00 0.94 0.94 10 1003.1
20260505173802 14 0.0 0.0 0.00 0.94 0.94 10 1003.1
20260505172720 15 0.0 0.0 0.00 0.94 0.94 10 1003.2
20260505171758 15 0.0 0.0 0.00 0.94 0.94 10 1003.2
20260505170727 15 0.0 0.0 0.00 0.94 0.94 10 1003.2
20260505165737 15 0.0 0.0 0.00 0.94 0.94 10 1003.1
20260505164728 15 0.0 0.0 0.00 0.94 0.94 10 1003.1
20260505163747 15 0.0 0.0 0.15 0.94 0.94 10 1003.2
20260505162722 15 0.0 0.0 0.51 0.94 0.94 10 1003.4
20260505161736 15 0.0 0.0 0.74 0.94 0.94 15 1003.3
20260505152730 16 200 11.3 14.5 0.25 0.41 0.41 49 1003.5
20260505151721 17 223 4.8 9.7 0.05 0.20 0.20 56 1003.3
20260505150743 18 227 14.5 19.3 0.00 0.15 0.15 60 1003.0
20260505124723 20 0.0 0.0 0.00 0.15 0.15 60 1003.6